Regional Weather Roundup
Issued by NWS Goodland, KS

Home | Current Version | Previous Version | Text Only | Print | Product List | Glossary On
Versions: 1 2 3 4 5 6 7 8 9 10 11 12 13 14 15 16 17 18 19 20 21 22 23 24 25 26 27 28 29 30 31 32 33 34 35 36 37 38 39 40 41 42 43 44 45 46 47 48 49 50
000
ASUS43 KGLD 200708
RWRGLD

GOODLAND FORECAST AREA HOURLY WEATHER ROUNDUP
NATIONAL WEATHER SERVICE GOODLAND KS
100 AM MDT WED AUG 20 2014

...OFFICIAL OBSERVATIONS...

CITY           SKY/WX    TMP DP  RH WIND       PRES   REMARKS
GOODLAND KS    CLOUDY    76  58  53 S13       29.84F
HILL CITY KS   CLOUDY    79  62  56 W10       29.80R
IMPERIAL NEB   CLOUDY    68  62  81 N5        29.84R
MCCOOK NEB     CLOUDY    73  63  70 E5        29.80F
AKRON CO       CLOUDY    64  60  87 W3        29.87F
BURLINGTON CO  MOCLDY    73  55  53 S10       29.86F
LIMON CO       CLOUDY    65  49  56 CALM      29.93F
$$

...UNOFFICIAL OBSERVATIONS...

CITY           SKY/WX    TMP DP  RH WIND       PRES   REMARKS
COLBY KS       PTCLDY    77  64  65 S12       29.84S
LENORA KS        N/A     76  32  20 CALM        N/A
NORTON KS      CLEAR     73  61  64 NE3       29.80S
SHARON SPRINGS   N/A     78  60  54 S15G24      N/A
WAKEENEY KS      N/A     78  56  46 MISG        N/A
KIT CARSON CO    N/A     74  54  48 MISG        N/A
YUMA CO          N/A     66  61  84 S5          N/A
$$


USA.gov is the U.S. government's official web portal to all federal, state and local government web resources and services.